Date String (YYYY-MM-DD hh:mm:ss) UTC,Instrument flags,Ambient pressure (hPa),Sample flow (lpm),Bypass flow (lpm),Sample temperature (°C),Ambient temperature (°C),ASC tube jacket temperature (°C),LED temperature (°C),Box temperature (°C),Sample RH (%),Span deviation,Mass concentration (μg/m³),Mass concentration (μg/m³),Mass concentration (μg/m³)
DateTimeUTC,F1_M11,P_M11,Q1_M11,Q2_M11,T1_M11,T2_M11,T3_M11,T4_M11,T5_M11,U1_M11,ZSPAN_M11,X0_M11,X2_M11,X1_M11
2022-04-30 03:00:00,,0821.1,5.01,0.00,23.6,22.5,00.0,32.6,25.3,10.2,0000.0,0005.84,0002.25,0001.25
2022-04-30 03:01:00,,0821.2,5.00,0.00,23.6,22.5,00.0,32.6,25.2,10.2,0000.0,0005.75,0002.18,0001.24
2022-04-30 03:02:00,,0821.2,4.98,0.00,23.6,22.4,00.0,32.6,25.2,10.2,0000.0,0006.76,0002.10,0001.22
2022-04-30 03:03:00,,0821.2,5.00,0.00,23.6,22.4,00.0,32.6,25.3,10.2,0000.0,0007.44,0002.02,0001.19
2022-04-30 03:04:00,,0821.1,5.01,0.00,23.6,22.5,00.0,32.6,25.2,10.2,0000.0,0007.66,0001.98,0001.18
2022-04-30 03:05:00,,0821.1,4.99,0.00,23.6,22.5,00.0,32.6,25.3,10.2,0000.0,0007.64,0001.93,0001.16
2022-04-30 03:06:00,,0821.2,5.01,0.00,23.5,22.5,00.0,32.6,25.3,10.3,0000.0,0007.71,0001.84,0001.13
2022-04-30 03:07:00,,0821.3,5.02,0.00,23.5,22.5,00.0,32.6,25.3,10.3,0000.0,0007.71,0001.75,0001.11
2022-04-30 03:08:00,,0821.5,5.00,0.00,23.5,22.5,00.0,32.6,25.2,10.4,0000.0,0007.27,0001.71,0001.09
2022-04-30 03:09:00,,0821.4,4.99,0.00,23.5,22.5,00.0,32.6,25.2,10.4,0000.0,0007.26,0001.71,0001.07
2022-04-30 03:10:00,,0821.4,5.01,0.00,23.5,22.5,00.0,32.6,25.2,10.6,0000.0,0007.03,0001.70,0001.06
2022-04-30 03:11:00,,0821.5,5.00,0.00,23.5,22.5,00.0,32.6,25.3,10.7,0000.0,0007.05,0001.70,0001.05
2022-04-30 03:12:00,,0821.6,4.99,0.00,23.5,22.5,00.0,32.6,25.3,10.6,0000.0,0007.02,0001.74,0001.04
2022-04-30 03:13:00,,0821.5,4.99,0.00,23.5,22.5,00.0,32.6,25.2,10.7,0000.0,0005.77,0001.80,0001.05
2022-04-30 03:14:00,,0821.4,5.00,0.00,23.5,22.4,00.0,32.6,25.2,10.8,0000.0,0004.72,0001.79,0001.05
2022-04-30 03:15:00,,0821.7,5.01,0.00,23.5,22.4,00.0,32.6,25.2,10.9,0000.0,0004.32,0001.78,0001.04
2022-04-30 03:16:00,,0821.6,5.00,0.00,23.5,22.4,00.0,32.5,25.1,11.0,0000.0,0004.08,0001.75,0001.05
2022-04-30 03:17:00,,0821.7,4.99,0.00,23.5,22.3,00.0,32.5,25.1,11.0,0000.0,0003.64,0001.75,0001.05
2022-04-30 03:18:00,,0821.6,5.00,0.00,23.5,22.3,00.0,32.5,25.1,11.0,0000.0,0003.18,0001.78,0001.06
2022-04-30 03:19:00,,0821.7,4.99,0.00,23.5,22.4,00.0,32.5,25.2,11.1,0000.0,0003.31,0001.84,0001.07
2022-04-30 03:20:00,,0821.7,5.00,0.00,23.4,22.3,00.0,32.5,25.1,11.1,0000.0,0003.98,0001.85,0001.09
2022-04-30 03:21:00,,0821.7,4.99,0.00,23.4,22.3,00.0,32.5,25.0,11.2,0000.0,0004.48,0001.82,0001.09
2022-04-30 03:22:00,,0821.8,4.99,0.00,23.4,22.3,00.0,32.5,25.1,11.1,0000.0,0004.34,0001.79,0001.10
2022-04-30 03:23:00,,0821.7,5.00,0.00,23.4,22.3,00.0,32.5,25.1,11.1,0000.0,0005.84,0001.75,0001.10
2022-04-30 03:24:00,,0821.6,5.02,0.00,23.4,22.3,00.0,32.5,25.1,11.2,0000.0,0006.38,0001.77,0001.09
2022-04-30 03:25:00,,0821.7,5.00,0.00,23.4,22.3,00.0,32.5,25.1,11.2,0000.0,0006.88,0001.86,0001.10
2022-04-30 03:26:00,,0821.6,4.99,0.00,23.4,22.3,00.0,32.5,25.0,11.3,0000.0,0006.98,0001.89,0001.10
2022-04-30 03:27:00,,0821.8,4.99,0.00,23.4,22.2,00.0,32.5,25.0,11.4,0000.0,0007.07,0001.90,0001.10
2022-04-30 03:28:00,,0821.7,5.02,0.00,23.4,22.2,00.0,32.4,24.9,11.4,0000.0,0007.11,0001.88,0001.11
2022-04-30 03:29:00,,0821.7,5.00,0.00,23.3,22.2,00.0,32.4,25.0,11.3,0000.0,0007.28,0001.91,0001.11
2022-04-30 03:30:00,,0821.8,4.99,0.00,23.3,22.2,00.0,32.4,25.0,11.2,0000.0,0007.29,0001.89,0001.11
2022-04-30 03:31:00,,0821.7,4.99,0.00,23.3,22.2,00.0,32.4,25.1,11.2,0000.0,0006.71,0001.91,0001.10
2022-04-30 03:32:00,,0821.8,5.01,0.00,23.3,22.2,00.0,32.4,25.0,11.4,0000.0,0006.11,0001.96,0001.11
2022-04-30 03:33:00,,0821.7,5.00,0.00,23.3,22.2,00.0,32.4,25.0,11.4,0000.0,0006.43,0002.05,0001.12
2022-04-30 03:34:00,,0821.6,5.00,0.00,23.3,22.2,00.0,32.4,25.0,11.5,0000.0,0005.01,0002.09,0001.13
2022-04-30 03:35:00,,0821.8,4.99,0.00,23.3,22.2,00.0,32.4,25.1,11.6,0000.0,0004.32,0002.05,0001.13
2022-04-30 03:36:00,,0821.8,4.99,0.00,23.3,22.2,00.0,32.4,25.1,11.6,0000.0,0003.96,0002.01,0001.13
2022-04-30 03:37:00,,0821.9,5.00,0.00,23.3,22.2,00.0,32.3,25.0,11.6,0000.0,0004.15,0002.09,0001.14
2022-04-30 03:38:00,,0821.9,5.02,0.00,23.3,22.2,00.0,32.3,24.9,11.7,0000.0,0004.34,0002.12,0001.13
2022-04-30 03:39:00,,0821.8,5.00,0.00,23.2,22.1,00.0,32.3,24.9,11.7,0000.0,0004.43,0002.15,0001.13
2022-04-30 03:40:00,,0821.8,5.00,0.00,23.2,22.2,00.0,32.3,24.9,11.7,0000.0,0004.28,0002.12,0001.12
2022-04-30 03:41:00,,0821.8,5.00,0.00,23.2,22.2,00.0,32.3,25.0,11.9,0000.0,0004.16,0002.10,0001.12
2022-04-30 03:42:00,,0822.0,5.00,0.00,23.2,22.1,00.0,32.3,24.9,11.9,0000.0,0004.11,0002.08,0001.12
2022-04-30 03:43:00,,0821.9,5.01,0.00,23.2,22.1,00.0,32.3,24.9,11.9,0000.0,0004.16,0002.08,0001.11
2022-04-30 03:44:00,,0821.9,5.00,0.00,23.2,22.2,00.0,32.3,25.0,12.1,0000.0,0004.22,0002.07,0001.11
2022-04-30 03:45:00,,0822.1,5.00,0.00,23.2,22.1,00.0,32.3,24.9,12.1,0000.0,0004.35,0002.05,0001.12
2022-04-30 03:46:00,,0822.1,5.00,0.00,23.2,22.1,00.0,32.3,24.8,12.2,0000.0,0004.40,0002.07,0001.12
2022-04-30 03:47:00,,0822.1,5.00,0.00,23.2,22.1,00.0,32.3,24.7,12.3,0000.0,0004.34,0002.05,0001.12
2022-04-30 03:48:00,,0822.1,4.99,0.00,23.2,22.0,00.0,32.2,24.8,12.2,0000.0,0004.35,0001.96,0001.11
2022-04-30 03:49:00,,0822.3,4.98,0.00,23.2,22.1,00.0,32.2,24.8,12.2,0000.0,0004.54,0001.92,0001.11
2022-04-30 03:50:00,,0822.3,5.01,0.00,23.1,22.0,00.0,32.2,24.7,12.3,0000.0,0006.57,0001.98,0001.12
2022-04-30 03:51:00,,0822.3,4.99,0.00,23.1,22.0,00.0,32.2,24.8,12.3,0000.0,0007.11,0002.03,0001.14
2022-04-30 03:52:00,,0822.3,4.99,0.00,23.1,22.0,00.0,32.2,24.8,12.4,0000.0,0007.50,0002.03,0001.14
2022-04-30 03:53:00,,0822.3,5.01,0.00,23.1,22.0,00.0,32.2,24.8,12.4,0000.0,0008.31,0002.06,0001.14
2022-04-30 03:54:00,,0822.4,5.01,0.00,23.2,22.0,00.0,32.2,24.9,12.3,0000.0,0008.28,0002.01,0001.15
2022-04-30 03:55:00,,0822.3,5.00,0.00,23.2,22.0,00.0,32.2,24.8,12.3,0000.0,0008.16,0001.97,0001.14
2022-04-30 03:56:00,,0822.3,5.01,0.00,23.2,22.0,00.0,32.2,24.8,12.5,0000.0,0008.08,0001.99,0001.14
2022-04-30 03:57:00,,0822.5,5.00,0.00,23.2,22.0,00.0,32.2,24.9,12.5,0000.0,0008.08,0001.94,0001.13
2022-04-30 03:58:00,,0822.5,4.99,0.00,23.1,22.0,00.0,32.2,24.8,12.5,0000.0,0008.67,0001.90,0001.13
2022-04-30 03:59:00,,0822.5,5.01,0.00,23.1,22.0,00.0,32.2,24.8,12.7,0000.0,0008.66,0001.92,0001.13
